{"data":{"norad_id":39022,"epoch":"2026-05-25T04:00:15.762240Z","epoch_age_seconds":53873,"freshness":"FRESH","line1":"1 39022U 12070A   26145.16684910  .00000084  00000+0  00000+0 0  9999","line2":"2 39022   1.2083  84.4285 0003897 335.6993 297.5907  1.00271541 49168","mean_motion":1.00271541,"eccentricity":0.0003897,"inclination_deg":1.2083,"raan_deg":84.4285,"arg_perigee_deg":335.6993,"mean_anomaly_deg":297.5907,"bstar":0,"rev_number":4916,"period_min":1436.1003986166,"perigee_km":35770.231740685,"apogee_km":35803.094986088,"semimajor_km":42164.800363387,"source":"CELESTRAK","updated_at":"2026-05-25T13:38:13.939912Z"}}